WHOI SSSG dsLogCsv
DATE_GMT, TIME_GMT, Dec_LAT, Dec_LON, SPD, HDT, COG, SOG, WXTP_Ta, WXTS_Ta, WXTP_Pa, WXTS_Pa, WXTP_Ri, WXTS_Ri, WXTP_Rc, WXTS_Rc, WXTP_Dm, WXTS_Dm, WXTP_Sm, WXTS_Sm, WXTP_Ua, WXTS_Ua, WXTP_TS, WXTS_TS, WXTP_TD, WXTS_TD, RAD_SW, RAD_LW, SBE45S, SBE48T, BAROM_P, BAROM_S, FLR, SSVdslog, Depth12, Depth35, EM122
2018/04/06, 00:00:20.043, 39.199, -39.981, 2.360, 322.800, 299.500, 1.960, 14.9, 14.9, 1023.5, 1023.3, 0.0, 0.0, 7.350, 6.460, 307, 308, 7.7, 8.0, 62.6, 62.2, 6.84, 7.13, 265.62, 266.91, -4.610, 384.030, 36.4819, 18.2481, 1025.94, 1025.74, 346.800, 1518.278, NAN, NAN, NAN
2018/04/06, 00:01:20.043, 39.199, -39.981, 1.360, 323.000, 7.600, 2.160, 14.9, 14.9, 1023.5, 1023.3, 0.0, 0.0, 7.350, 6.460, 302, 306, 8.4, 8.7, 63.5, 62.8, 8.71, 8.93, 257.85, 261.94, -4.820, 384.410, 36.4820, 18.2477, 1025.94, 1025.74, 338.200, 1518.277, NAN, NAN, NAN
2018/04/06, 00:02:20.043, 39.200, -39.982, 3.950, 321.200, 313.200, 5.000, 14.9, 15.0, 1023.4, 1023.5, 0.0, 0.0, 7.350, 6.460, 320, 318, 7.2, 7.6, 64.3, 63.9, 5.20, 5.66, 266.02, 264.48, -4.730, 384.830, 36.4821, 18.2487, 1025.84, 1025.94, 335.800, 1518.280, NAN, NAN, NAN
2018/04/06, 00:03:20.043, 39.201, -39.983, 6.510, 311.300, 321.300, 7.450, 15.0, 15.1, 1023.4, 1023.3, 0.0, 0.0, 7.350, 6.460, 326, 329, 9.2, 9.4, 65.2, 64.2, 6.97, 6.98, 254.87, 259.20, -4.710, 384.120, 36.4825, 18.2483, 1025.84, 1025.74, 347.500, 1518.279, NAN, NAN, NAN
2018/04/06, 00:04:20.043, 39.203, -39.985, 8.450, 292.300, 289.300, 9.120, 15.0, 15.1, 1023.5, 1023.6, 0.0, 0.0, 7.350, 6.460, 340, 341, 10.8, 11.0, 63.1, 62.6, 6.46, 6.62, 260.06, 262.05, -4.670, 383.590, 36.4809, 18.2470, 1025.94, 1026.04, 349.600, 1518.274, NAN, NAN, NAN
2018/04/06, 00:05:20.043, 39.204, -39.988, 9.980, 295.200, 294.600, 9.590, 14.9, 15.0, 1023.5, 1023.4, 0.0, 0.0, 7.350, 6.460, 343, 342, 10.6, 10.7, 63.0, 62.6, 6.03, 6.17, 264.86, 263.39, -4.630, 386.420, 36.4802, 18.2465, 1025.94, 1025.84, 349.600, 1518.271, NAN, NAN, NAN
2018/04/06, 00:06:20.043, 39.205, -39.991, 10.340, 272.800, 272.600, 8.940, 14.9, 15.0, 1023.3, 1023.2, 0.0, 0.0, 7.350, 6.460, 352, 355, 10.9, 11.3, 63.6, 63.1, 6.38, 6.73, 259.19, 264.53, -4.650, 387.860, 36.4769, 18.2424, 1025.74, 1025.64, 333.700, 1518.256, NAN, NAN, NAN
2018/04/06, 00:07:20.043, 39.205, -39.995, 10.630, 275.700, 284.300, 10.860, 14.9, 15.0, 1023.5, 1023.2, 0.0, 0.0, 7.350, 6.460, 353, 354, 11.3, 11.3, 63.3, 62.7, 6.11, 6.06, 254.48, 256.28, -4.600, 388.460, 36.4657, 18.2318, 1025.94, 1025.64, 325.100, 1518.213, NAN, NAN, NAN
2018/04/06, 00:08:20.043, 39.206, -39.998, 10.720, 275.600, 281.700, 10.520, 14.9, 15.0, 1023.3, 1023.5, 0.0, 0.0, 7.350, 6.460, 353, 356, 11.5, 11.7, 65.0, 64.4, 6.35, 6.45, 257.48, 263.14, -4.660, 389.790, 36.4185, 18.1953, 1025.74, 1025.94, 318.000, 1518.053, NAN, NAN, NAN
2018/04/06, 00:09:20.043, 39.206, -40.002, 10.530, 275.600, 279.700, 10.200, 14.9, 15.0, 1023.4, 1023.4, 0.0, 0.0, 7.350, 6.460, 359, 2, 11.3, 11.4, 63.3, 62.9, 6.10, 6.16, 270.22, 275.81, -4.520, 388.930, 36.3694, 18.1499, 1025.84, 1025.84, 268.600, 1517.866, NAN, NAN, NAN
2018/04/06, 00:10:20.044, 39.207, -40.005, 10.440, 277.000, 300.700, 10.560, 14.9, 15.0, 1023.4, 1023.2, 0.0, 0.0, 7.350, 6.460, 356, 357, 10.6, 10.6, 63.7, 63.4, 6.32, 6.25, 249.47, 251.02, -4.630, 389.090, 36.3502, 18.0981, 1025.84, 1025.64, 253.700, 1517.694, NAN, NAN, NAN
2018/04/06, 00:11:20.044, 39.207, -40.009, 10.790, 275.900, 274.400, 11.160, 14.9, 15.0, 1023.1, 1023.6, 0.0, 0.0, 7.350, 6.460, 2, 4, 11.3, 12.0, 65.1, 64.7, 5.59, 6.31, 281.49, 284.90, -4.670, 389.600, 36.3331, 18.0448, 1025.54, 1026.04, 265.100, 1517.520, NAN, NAN, NAN
2018/04/06, 00:12:20.044, 39.208, -40.013, 10.760, 274.000, 273.500, 10.290, 15.0, 15.0, 1023.2, 1023.7, 0.0, 0.0, 7.350, 6.460, 355, 357, 10.9, 11.2, 64.2, 63.9, 5.64, 5.92, 264.78, 268.77, -4.550, 389.260, 36.3184, 17.9958, 1025.64, 1026.14, 249.100, 1517.361, NAN, NAN, NAN
2018/04/06, 00:13:20.044, 39.208, -40.016, 10.600, 275.000, 284.300, 10.930, 15.0, 15.1, 1023.4, 1023.5, 0.0, 0.0, 7.350, 6.460, 2, 3, 12.6, 12.6, 65.5, 64.4, 7.06, 7.04, 271.20, 272.98, -4.590, 389.830, 36.3062, 17.9476, 1025.84, 1025.94, 250.400, 1517.207, NAN, NAN, NAN
2018/04/06, 00:14:20.044, 39.208, -40.020, 10.500, 274.700, 283.500, 9.710, 15.0, 15.0, 1023.0, 1023.6, 0.0, 0.0, 7.350, 6.460, 3, 7, 11.5, 11.8, 64.2, 63.7, 6.55, 6.81, 273.29, 280.38, -4.620, 390.050, 36.2875, 17.9028, 1025.44, 1026.04, 252.000, 1517.055, NAN, NAN, NAN
2018/04/06, 00:15:20.044, 39.209, -40.023, 10.430, 275.300, 284.600, 10.550, 15.0, 15.0, 1023.6, 1022.9, 0.0, 0.0, 7.350, 6.460, 0, 3, 11.9, 11.9, 64.2, 63.9, 6.61, 6.54, 267.68, 273.08, -4.630, 390.270, 36.2786, 17.8588, 1026.04, 1025.34, 255.200, 1516.916, NAN, NAN, NAN
2018/04/06, 00:16:20.044, 39.209, -40.027, 10.920, 274.000, 273.000, 11.040, 15.0, 15.0, 1023.3, 1023.1, 0.0, 0.0, 7.350, 6.460, 350, 353, 10.7, 10.7, 64.7, 64.0, 5.17, 5.09, 254.12, 260.31, -4.670, 389.540, 36.2603, 17.8195, 1025.74, 1025.54, 275.600, 1516.781, NAN, NAN, NAN
2018/04/06, 00:17:20.044, 39.209, -40.031, 10.940, 274.400, 283.600, 11.440, 15.0, 15.0, 1023.3, 1023.5, 0.0, 0.0, 7.350, 6.460, 1, 2, 12.6, 12.4, 64.7, 63.7, 6.83, 6.61, 268.35, 270.00, -4.640, 389.020, 36.2501, 17.7825, 1025.74, 1025.94, 273.200, 1516.661, NAN, NAN, NAN
2018/04/06, 00:18:20.044, 39.210, -40.035, 10.580, 273.000, 279.900, 11.030, 14.9, 15.0, 1023.5, 1023.4, 0.0, 0.0, 7.350, 6.460, 3, 358, 11.7, 11.4, 63.9, 63.4, 6.06, 5.86, 272.35, 262.40, -4.630, 389.700, 36.2498, 17.7516, 1025.94, 1025.84, 279.300, 1516.570, NAN, NAN, NAN
2018/04/06, 00:19:20.044, 39.210, -40.038, 10.830, 273.800, 276.400, 10.050, 14.9, 15.0, 1023.5, 1023.1, 0.0, 0.0, 7.350, 6.460, 354, 353, 11.7, 11.6, 64.7, 64.1, 6.64, 6.56, 261.12, 259.26, -4.630, 389.600, 36.2546, 17.7287, 1025.94, 1025.54, 278.400, 1516.509, NAN, NAN, NAN
2018/04/06, 00:20:20.044, 39.210, -40.042, 10.930, 273.700, 267.000, 10.830, 15.0, 15.0, 1023.4, 1023.1, 0.0, 0.0, 7.350, 6.460, 357, 0, 12.4, 12.0, 65.4, 64.7, 6.85, 6.50, 273.70, 279.43, -4.680, 390.000, 36.2654, 17.7168, 1025.84, 1025.54, 264.100, 1516.486, NAN, NAN, NAN
2018/04/06, 00:21:20.044, 39.210, -40.046, 11.110, 273.700, 284.600, 9.490, 15.0, 15.0, 1023.3, 1023.1, 0.0, 0.0, 7.350, 6.460, 359, 359, 11.8, 11.9, 64.8, 64.0, 7.10, 7.20, 264.55, 264.67, -4.640, 389.200, 36.2953, 17.7196, 1025.74, 1025.54, 261.700, 1516.528, NAN, NAN, NAN
2018/04/06, 00:22:20.044, 39.210, -40.049, 10.770, 273.900, 275.300, 10.760, 15.0, 15.0, 1023.5, 1023.4, 0.0, 0.0, 7.350, 6.460, 356, 353, 11.9, 11.7, 64.0, 63.4, 6.42, 6.28, 265.25, 259.51, -4.610, 387.710, 36.3157, 17.7304, 1025.94, 1025.84, 259.800, 1516.583, NAN, NAN, NAN
2018/04/06, 00:23:20.044, 39.211, -40.053, 11.080, 273.200, 271.000, 10.120, 15.0, 15.0, 1023.6, 1023.5, 0.0, 0.0, 7.350, 6.460, 354, 352, 12.0, 12.4, 65.9, 65.0, 6.82, 7.24, 264.30, 261.04, -4.710, 388.510, 36.3198, 17.7418, 1026.04, 1025.94, 250.000, 1516.621, NAN, NAN, NAN
2018/04/06, 00:24:20.044, 39.211, -40.057, 10.980, 275.100, 283.500, 10.400, 15.0, 15.1, 1023.4, 1023.1, 0.0, 0.0, 7.350, 6.460, 348, 350, 11.0, 11.1, 65.8, 65.2, 6.27, 6.26, 245.82, 249.46, -4.600, 389.760, 36.3298, 17.7639, 1025.84, 1025.54, 247.000, 1516.697, NAN, NAN, NAN
2018/04/06, 00:25:20.044, 39.211, -40.061, 10.930, 274.000, 257.700, 9.040, 15.0, 15.1, 1023.4, 1023.4, 0.0, 0.0, 7.350, 6.460, 349, 349, 11.4, 11.2, 67.1, 66.5, 6.79, 6.59, 266.63, 266.74, -4.550, 389.830, 36.4142, 17.8113, 1025.84, 1025.84, 281.200, 1516.932, NAN, NAN, NAN
2018/04/06, 00:26:20.044, 39.211, -40.064, 10.850, 274.400, 273.600, 10.250, 15.1, 15.2, 1023.6, 1023.4, 0.0, 0.0, 7.350, 6.460, 351, 354, 11.7, 11.8, 66.7, 65.9, 6.53, 6.57, 258.79, 264.23, -4.550, 388.610, 36.4308, 17.8589, 1026.04, 1025.84, 280.900, 1517.090, NAN, NAN, NAN
2018/04/06, 00:27:20.045, 39.212, -40.068, 11.180, 274.500, 268.100, 10.880, 15.1, 15.2, 1023.2, 1023.3, 0.0, 0.0, 7.350, 6.460, 359, 359, 11.2, 10.6, 65.3, 64.9, 5.66, 5.06, 278.84, 279.47, -4.540, 387.740, 36.4129, 17.8958, 1025.64, 1025.74, 261.900, 1517.177, NAN, NAN, NAN
2018/04/06, 00:28:20.045, 39.212, -40.072, 11.130, 273.100, 284.000, 9.640, 15.1, 15.2, 1023.2, 1023.3, 0.0, 0.0, 7.350, 6.460, 358, 355, 11.5, 11.6, 67.1, 65.8, 6.76, 6.97, 261.68, 256.87, -4.610, 388.340, 36.4368, 17.9357, 1025.64, 1025.74, 272.000, 1517.321, NAN, NAN, NAN
2018/04/06, 00:29:20.045, 39.212, -40.075, 11.220, 274.300, 283.600, 10.810, 15.1, 15.2, 1023.3, 1023.0, 0.0, 0.0, 7.350, 6.460, 356, 355, 12.4, 12.3, 65.7, 64.8, 7.11, 7.05, 259.94, 258.08, -4.570, 387.190, 36.4532, 17.9758, 1025.74, 1025.44, 279.000, 1517.456, NAN, NAN, NAN
2018/04/06, 00:30:20.045, 39.213, -40.079, 10.920, 273.700, 268.200, 11.280, 15.0, 15.1, 1023.1, 1023.3, 0.0, 0.0, 7.350, 6.460, 356, 357, 11.0, 11.4, 66.0, 64.8, 5.21, 5.61, 271.37, 273.28, -4.640, 388.230, 36.4688, 18.0152, 1025.54, 1025.74, 313.900, 1517.589, NAN, NAN, NAN
2018/04/06, 00:31:20.045, 39.213, -40.083, 10.940, 275.300, 280.400, 11.190, 15.0, 15.1, 1023.3, 1023.3, 0.0, 0.0, 7.350, 6.460, 350, 350, 11.8, 12.0, 66.7, 65.2, 6.42, 6.62, 251.81, 252.22, -4.620, 389.640, 36.4757, 18.0514, 1025.74, 1025.74, 324.000, 1517.701, NAN, NAN, NAN
2018/04/06, 00:32:20.045, 39.213, -40.086, 10.710, 274.200, 271.200, 8.530, 15.0, 15.1, 1023.2, 1023.5, 0.0, 0.0, 7.350, 6.460, 349, 353, 11.2, 11.2, 65.7, 64.9, 6.89, 6.83, 258.12, 264.63, -4.680, 389.790, 36.4814, 18.0841, 1025.64, 1025.94, 312.600, 1517.803, NAN, NAN, NAN
2018/04/06, 00:33:20.045, 39.213, -40.090, 10.480, 274.600, 279.400, 10.390, 15.0, 15.0, 1022.9, 1023.4, 0.0, 0.0, 7.350, 6.460, 348, 350, 10.5, 10.8, 65.3, 64.6, 5.60, 5.80, 246.61, 250.99, -4.690, 389.410, 36.4851, 18.1108, 1025.34, 1025.84, 310.500, 1517.884, NAN, NAN, NAN
2018/04/06, 00:34:20.045, 39.214, -40.094, 10.730, 274.700, 276.900, 10.260, 15.0, 15.1, 1023.2, 1022.9, 0.0, 0.0, 7.350, 6.460, 357, 357, 12.1, 11.8, 66.0, 64.7, 6.86, 6.57, 267.71, 267.53, -4.670, 389.140, 36.4808, 18.1299, 1025.64, 1025.34, 313.600, 1517.935, NAN, NAN, NAN
2018/04/06, 00:35:20.045, 39.214, -40.097, 10.870, 274.400, 284.600, 10.040, 15.1, 15.1, 1023.6, 1022.9, 0.0, 0.0, 7.350, 6.460, 353, 350, 11.3, 11.6, 67.5, 66.7, 6.55, 6.99, 253.93, 249.63, -4.680, 389.650, 36.4678, 18.1367, 1026.04, 1025.34, 318.700, 1517.940, NAN, NAN, NAN
2018/04/06, 00:36:20.045, 39.214, -40.101, 10.800, 275.000, 276.400, 11.000, 15.1, 15.1, 1023.2, 1023.4, 0.0, 0.0, 7.350, 6.460, 350, 349, 11.1, 11.2, 67.0, 66.5, 5.67, 5.81, 253.63, 251.93, -4.630, 390.570, 36.4464, 18.1331, 1025.64, 1025.84, 287.600, 1517.905, NAN, NAN, NAN
2018/04/06, 00:37:20.045, 39.215, -40.105, 11.090, 273.500, 274.700, 10.780, 15.1, 15.1, 1023.2, 1023.1, 0.0, 0.0, 7.350, 6.460, 345, 348, 10.4, 10.8, 65.4, 64.7, 5.31, 5.55, 241.57, 248.33, -4.550, 390.510, 36.4407, 18.1257, 1025.64, 1025.54, 275.600, 1517.877, NAN, NAN, NAN
2018/04/06, 00:38:20.045, 39.215, -40.108, 10.980, 273.200, 279.000, 10.830, 15.0, 15.1, 1023.3, 1023.2, 0.0, 0.0, 7.350, 6.460, 344, 348, 10.5, 10.3, 67.4, 67.1, 5.72, 5.28, 236.01, 242.40, -4.770, 391.200, 36.4470, 18.1199, 1025.74, 1025.64, 284.600, 1517.868, NAN, NAN, NAN
2018/04/06, 00:39:20.045, 39.215, -40.112, 10.990, 272.300, 268.800, 9.130, 15.1, 15.2, 1022.9, 1023.2, 0.0, 0.0, 7.350, 6.460, 353, 356, 11.5, 11.6, 67.1, 66.2, 6.82, 6.91, 262.89, 267.96, -4.630, 390.110, 36.4472, 18.1148, 1025.34, 1025.64, 287.300, 1517.853, NAN, NAN, NAN
2018/04/06, 00:40:20.045, 39.216, -40.116, 11.000, 274.200, 272.500, 10.760, 15.1, 15.2, 1022.9, 1023.5, 0.0, 0.0, 7.350, 6.460, 354, 356, 12.1, 12.1, 67.1, 66.0, 6.60, 6.58, 264.60, 268.27, -4.670, 390.370, 36.4461, 18.1091, 1025.34, 1025.94, 307.200, 1517.835, NAN, NAN, NAN
2018/04/06, 00:41:20.045, 39.216, -40.119, 10.790, 273.600, 265.900, 9.990, 15.1, 15.1, 1023.0, 1023.4, 0.0, 0.0, 7.350, 6.460, 356, 358, 11.1, 11.1, 66.6, 65.6, 5.99, 6.01, 272.77, 276.47, -4.630, 390.330, 36.4436, 18.1022, 1025.44, 1025.84, 309.600, 1517.812, NAN, NAN, NAN
2018/04/06, 00:42:20.045, 39.216, -40.123, 10.740, 272.800, 276.000, 9.760, 15.0, 15.1, 1023.1, 1023.4, 0.0, 0.0, 7.350, 6.460, 349, 352, 11.9, 12.3, 66.5, 65.4, 7.14, 7.44, 251.88, 257.28, -4.610, 389.870, 36.4434, 18.0972, 1025.54, 1025.84, 288.000, 1517.798, NAN, NAN, NAN
2018/04/06, 00:43:20.046, 39.217, -40.127, 10.710, 274.500, 270.300, 10.710, 15.0, 15.1, 1022.8, 1023.4, 0.0, 0.0, 7.350, 6.460, 349, 351, 11.9, 11.9, 66.0, 64.9, 6.47, 6.43, 257.72, 261.39, -4.560, 389.760, 36.4402, 18.0925, 1025.24, 1025.84, 288.100, 1517.780, NAN, NAN, NAN
2018/04/06, 00:44:20.046, 39.217, -40.130, 10.620, 274.600, 277.400, 10.140, 15.0, 15.1, 1022.8, 1023.1, 0.0, 0.0, 7.350, 6.460, 351, 352, 12.0, 11.7, 66.1, 65.2, 6.98, 6.65, 256.82, 258.16, -4.750, 390.200, 36.4387, 18.0892, 1025.24, 1025.54, 296.400, 1517.769, NAN, NAN, NAN
2018/04/06, 00:45:20.046, 39.217, -40.134, 10.860, 274.900, 271.700, 9.810, 15.1, 15.1, 1023.2, 1022.9, 0.0, 0.0, 7.350, 6.460, 352, 354, 10.5, 10.6, 67.1, 66.9, 5.49, 5.57, 262.49, 266.37, -4.660, 391.280, 36.4374, 18.0853, 1025.64, 1025.34, 291.000, 1517.756, NAN, NAN, NAN
2018/04/06, 00:46:20.046, 39.217, -40.137, 10.580, 274.800, 268.500, 10.780, 15.1, 15.2, 1023.6, 1022.8, 0.0, 0.0, 7.350, 6.460, 356, 357, 12.3, 12.3, 66.4, 65.3, 6.77, 6.78, 272.68, 274.50, -4.560, 390.730, 36.4359, 18.0805, 1026.04, 1025.24, 301.400, 1517.741, NAN, NAN, NAN
2018/04/06, 00:47:20.046, 39.218, -40.141, 10.850, 274.300, 287.200, 10.260, 15.1, 15.2, 1023.3, 1023.1, 0.0, 0.0, 7.350, 6.460, 353, 352, 11.0, 11.2, 66.9, 65.7, 6.30, 6.55, 250.75, 249.61, -4.630, 390.760, 36.4339, 18.0759, 1025.74, 1025.54, 304.100, 1517.725, NAN, NAN, NAN
2018/04/06, 00:48:20.046, 39.218, -40.145, 10.850, 275.200, 264.200, 10.650, 15.1, 15.2, 1023.1, 1023.3, 0.0, 0.0, 7.350, 6.460, 348, 350, 11.4, 11.8, 66.0, 65.0, 5.93, 6.33, 262.28, 266.07, -4.610, 390.860, 36.4320, 18.0724, 1025.54, 1025.74, 301.900, 1517.713, NAN, NAN, NAN
2018/04/06, 00:49:20.046, 39.218, -40.148, 10.780, 275.000, 283.100, 10.670, 15.1, 15.2, 1023.3, 1023.0, 0.0, 0.0, 7.350, 6.460, 348, 349, 11.6, 11.7, 66.8, 65.8, 6.72, 6.76, 246.71, 248.61, -4.620, 391.850, 36.4412, 18.0719, 1025.74, 1025.44, 297.100, 1517.722, NAN, NAN, NAN
2018/04/06, 00:50:20.046, 39.219, -40.152, 11.020, 272.800, 274.400, 10.110, 15.1, 15.2, 1022.9, 1023.2, 0.0, 0.0, 7.350, 6.460, 354, 355, 11.9, 12.1, 67.6, 66.6, 6.78, 6.96, 260.99, 262.88, -4.550, 391.730, 36.4428, 18.0732, 1025.34, 1025.64, 299.500, 1517.727, NAN, NAN, NAN
2018/04/06, 00:51:20.046, 39.219, -40.156, 10.990, 273.800, 274.500, 10.230, 15.2, 15.2, 1023.3, 1023.2, 0.0, 0.0, 7.350, 6.460, 347, 349, 11.7, 12.2, 66.4, 65.2, 6.71, 7.13, 250.10, 254.20, -4.590, 391.230, 36.4441, 18.0748, 1025.74, 1025.64, 305.600, 1517.733, NAN, NAN, NAN
2018/04/06, 00:52:20.046, 39.219, -40.159, 11.090, 275.400, 269.700, 10.750, 15.1, 15.3, 1023.0, 1023.2, 0.0, 0.0, 7.350, 6.460, 347, 349, 12.1, 12.1, 67.5, 65.6, 6.66, 6.62, 256.35, 259.98, -4.610, 391.500, 36.4416, 18.0742, 1025.44, 1025.64, 297.700, 1517.729, NAN, NAN, NAN
2018/04/06, 00:53:20.046, 39.219, -40.163, 10.860, 273.900, 274.300, 9.730, 15.1, 15.2, 1022.6, 1023.3, 0.0, 0.0, 7.350, 6.460, 355, 355, 12.0, 12.2, 66.6, 65.5, 7.04, 7.24, 265.06, 265.17, -4.560, 391.470, 36.4399, 18.0755, 1025.04, 1025.74, 288.800, 1517.731, NAN, NAN, NAN
2018/04/06, 00:54:20.046, 39.220, -40.166, 10.770, 274.900, 275.300, 10.380, 15.1, 15.2, 1023.0, 1022.9, 0.0, 0.0, 7.350, 6.460, 355, 359, 11.3, 11.9, 67.9, 67.2, 6.01, 6.57, 265.11, 272.76, -4.650, 391.100, 36.4378, 18.0753, 1025.44, 1025.34, 268.600, 1517.728, NAN, NAN, NAN
2018/04/06, 00:55:20.046, 39.220, -40.170, 10.840, 276.800, 278.700, 10.380, 15.2, 15.3, 1023.1, 1023.1, 0.0, 0.0, 7.350, 6.460, 355, 355, 11.4, 11.5, 68.3, 67.7, 6.14, 6.24, 265.80, 265.90, -4.630, 392.020, 36.4372, 18.0762, 1025.54, 1025.54, 274.200, 1517.730, NAN, NAN, NAN
2018/04/06, 00:56:20.046, 39.220, -40.174, 10.930, 276.000, 274.300, 10.100, 15.3, 15.4, 1023.1, 1023.3, 0.0, 0.0, 7.350, 6.460, 351, 351, 11.2, 11.3, 67.1, 65.6, 6.09, 6.19, 260.78, 260.88, -4.550, 390.710, 36.4355, 18.0739, 1025.54, 1025.74, 266.200, 1517.721, NAN, NAN, NAN
2018/04/06, 00:57:20.046, 39.221, -40.177, 11.070, 274.500, 274.400, 10.500, 15.2, 15.3, 1023.4, 1023.3, 0.0, 0.0, 7.350, 6.460, 348, 347, 10.8, 11.3, 67.9, 67.4, 5.63, 6.16, 251.10, 250.22, -4.570, 391.250, 36.4330, 18.0732, 1025.84, 1025.74, 280.900, 1517.716, NAN, NAN, NAN
2018/04/06, 00:58:20.046, 39.221, -40.181, 10.770, 274.700, 264.500, 10.760, 15.3, 15.3, 1022.8, 1023.2, 0.0, 0.0, 7.350, 6.460, 345, 350, 11.4, 11.1, 67.3, 66.0, 5.91, 5.57, 255.21, 264.90, -4.540, 390.840, 36.4290, 18.0701, 1025.24, 1025.64, 296.100, 1517.703, NAN, NAN, NAN
2018/04/06, 00:59:20.046, 39.221, -40.185, 11.020, 275.500, 273.900, 10.050, 15.2, 15.3, 1023.2, 1022.7, 0.0, 0.0, 7.350, 6.460, 351, 350, 11.5, 11.5, 67.3, 66.7, 6.41, 6.43, 260.54, 258.76, -4.640, 390.580, 36.4190, 18.0644, 1025.64, 1025.14, 278.400, 1517.675, NAN, NAN, NAN
2018/04/06, 01:00:20.046, 39.222, -40.188, 10.870, 274.200, 273.400, 9.690, 15.2, 15.3, 1023.2, 1022.8, 0.0, 0.0, 7.350, 6.460, 348, 351, 10.8, 10.8, 67.3, 65.8, 5.99, 5.91, 252.91, 258.30, -4.670, 390.720, 36.4184, 18.0602, 1025.64, 1025.24, 284.000, 1517.662, NAN, NAN, NAN
2018/04/06, 01:01:20.047, 39.222, -40.192, 10.750, 275.600, 280.000, 10.050, 15.2, 15.3, 1023.2, 1022.8, 0.0, 0.0, 7.350, 6.460, 344, 345, 11.3, 12.0, 68.4, 67.8, 6.70, 7.33, 244.02, 247.06, -4.670, 390.300, 36.4170, 18.0553, 1025.64, 1025.24, 284.600, 1517.646, NAN, NAN, NAN
2018/04/06, 01:02:20.047, 39.222, -40.196, 11.000, 274.600, 285.800, 10.810, 15.2, 15.3, 1023.3, 1022.8, 0.0, 0.0, 7.350, 6.460, 350, 350, 11.3, 12.1, 67.3, 66.8, 6.44, 7.21, 246.42, 248.41, -4.730, 389.100, 36.4148, 18.0499, 1025.74, 1025.24, 290.400, 1517.628, NAN, NAN, NAN
2018/04/06, 01:03:20.047, 39.223, -40.199, 10.920, 274.500, 271.800, 8.800, 15.2, 15.2, 1023.3, 1022.9, 0.0, 0.0, 7.350, 6.460, 348, 350, 11.8, 12.5, 67.6, 66.6, 7.37, 8.03, 256.81, 260.40, -4.710, 389.440, 36.4104, 18.0436, 1025.74, 1025.34, 288.400, 1517.605, NAN, NAN, NAN
2018/04/06, 01:04:20.047, 39.223, -40.203, 11.020, 273.900, 274.500, 10.390, 15.2, 15.3, 1023.0, 1023.1, 0.0, 0.0, 7.350, 6.460, 349, 353, 12.1, 12.2, 68.1, 67.0, 6.95, 6.94, 254.01, 261.06, -4.640, 390.790, 36.4050, 18.0374, 1025.44, 1025.54, 297.700, 1517.580, NAN, NAN, NAN
2018/04/06, 01:05:20.047, 39.223, -40.207, 10.960, 274.900, 279.200, 9.900, 15.2, 15.3, 1023.0, 1022.8, 0.0, 0.0, 7.350, 6.460, 352, 355, 11.0, 11.4, 67.4, 67.0, 6.12, 6.43, 256.71, 262.55, -4.640, 391.310, 36.4030, 18.0303, 1025.44, 1025.24, 276.000, 1517.558, NAN, NAN, NAN
2018/04/06, 01:06:20.047, 39.224, -40.210, 10.930, 273.900, 271.600, 10.990, 15.2, 15.3, 1022.9, 1023.3, 0.0, 0.0, 7.350, 6.460, 351, 353, 11.1, 11.7, 68.4, 67.2, 5.53, 6.09, 258.05, 262.54, -4.690, 391.520, 36.4037, 18.0230, 1025.34, 1025.74, 265.100, 1517.537, NAN, NAN, NAN
2018/04/06, 01:07:20.047, 39.224, -40.214, 10.780, 273.000, 270.100, 10.610, 15.2, 15.3, 1022.9, 1023.0, 0.0, 0.0, 7.350, 6.460, 348, 356, 12.2, 11.8, 68.0, 67.0, 6.87, 6.35, 253.79, 268.06, -4.710, 390.760, 36.4173, 18.0222, 1025.34, 1025.44, 304.600, 1517.550, NAN, NAN, NAN
2018/04/06, 01:08:20.047, 39.224, -40.218, 11.140, 273.900, 272.200, 8.600, 15.3, 15.3, 1022.6, 1023.2, 0.0, 0.0, 7.350, 6.460, 348, 349, 12.2, 12.4, 67.7, 66.0, 7.89, 8.07, 256.15, 257.82, -4.700, 388.950, 36.4254, 18.0239, 1025.04, 1025.64, 352.300, 1517.564, NAN, NAN, NAN
2018/04/06, 01:09:20.047, 39.225, -40.221, 10.880, 274.600, 273.200, 10.210, 15.2, 15.3, 1023.1, 1023.2, 0.0, 0.0, 7.350, 6.460, 352, 351, 10.7, 10.9, 67.2, 66.4, 5.52, 5.74, 260.33, 258.66, -4.720, 389.580, 36.4172, 18.0217, 1025.54, 1025.64, 362.700, 1517.549, NAN, NAN, NAN
2018/04/06, 01:10:20.047, 39.225, -40.225, 11.170, 272.600, 277.600, 9.800, 15.2, 15.3, 1023.1, 1023.1, 0.0, 0.0, 7.350, 6.460, 345, 348, 11.5, 11.4, 66.8, 65.9, 6.98, 6.75, 243.32, 247.99, -4.740, 388.250, 36.4072, 18.0166, 1025.54, 1025.54, 375.600, 1517.522, NAN, NAN, NAN
2018/04/06, 01:11:20.047, 39.225, -40.229, 11.060, 274.200, 275.300, 10.380, 15.2, 15.3, 1023.0, 1023.2, 0.0, 0.0, 7.350, 6.460, 344, 343, 11.7, 12.0, 68.3, 66.9, 6.78, 7.12, 244.83, 243.75, -4.670, 386.760, 36.4070, 18.0115, 1025.44, 1025.64, 396.800, 1517.507, NAN, NAN, NAN
2018/04/06, 01:12:20.047, 39.225, -40.232, 10.660, 276.300, 288.200, 10.400, 15.2, 15.3, 1023.0, 1022.8, 0.0, 0.0, 7.350, 6.460, 342, 342, 11.6, 11.9, 68.1, 66.9, 7.46, 7.74, 237.37, 238.16, -4.740, 388.380, 36.4056, 18.0031, 1025.44, 1025.24, 405.200, 1517.481, NAN, NAN, NAN
2018/04/06, 01:13:20.047, 39.226, -40.236, 10.950, 275.300, 273.300, 10.230, 15.2, 15.3, 1022.9, 1023.0, 0.0, 0.0, 7.350, 6.460, 351, 353, 10.8, 11.0, 68.6, 67.7, 5.62, 5.78, 259.75, 263.75, -4.770, 387.480, 36.4040, 17.9983, 1025.34, 1025.44, 356.600, 1517.466, NAN, NAN, NAN
2018/04/06, 01:14:20.047, 39.226, -40.239, 10.960, 275.200, 267.700, 10.570, 15.3, 15.4, 1023.2, 1022.8, 0.0, 0.0, 7.350, 6.460, 348, 351, 10.1, 10.2, 68.4, 67.8, 4.70, 4.77, 258.00, 264.49, -4.660, 389.230, 36.4075, 17.9952, 1025.64, 1025.24, 282.700, 1517.461, NAN, NAN, NAN
2018/04/06, 01:15:20.047, 39.226, -40.243, 11.030, 275.500, 273.700, 10.340, 15.3, 15.4, 1023.2, 1022.8, 0.0, 0.0, 7.350, 6.460, 345, 347, 11.4, 11.8, 68.1, 66.7, 6.34, 6.67, 249.47, 253.59, -4.710, 389.520, 36.4170, 17.9951, 1025.64, 1025.24, 267.500, 1517.471, NAN, NAN, NAN
2018/04/06, 01:16:20.047, 39.227, -40.247, 10.930, 273.900, 275.800, 10.190, 15.3, 15.4, 1023.2, 1023.0, 0.0, 0.0, 7.350, 6.460, 347, 345, 11.0, 11.0, 67.9, 67.3, 6.09, 6.18, 248.12, 244.63, -4.670, 387.620, 36.4250, 18.0013, 1025.64, 1025.44, 270.500, 1517.498, NAN, NAN, NAN
2018/04/06, 01:17:20.047, 39.227, -40.250, 10.890, 273.900, 271.400, 10.590, 15.3, 15.4, 1022.7, 1023.0, 0.0, 0.0, 7.350, 6.460, 348, 349, 11.6, 11.8, 67.7, 66.7, 6.30, 6.47, 253.70, 255.75, -4.700, 388.410, 36.4337, 18.0132, 1025.14, 1025.44, 327.800, 1517.543, NAN, NAN, NAN
2018/04/06, 01:18:20.048, 39.227, -40.254, 10.630, 275.300, 285.700, 10.450, 15.2, 15.3, 1022.9, 1023.0, 0.0, 0.0, 7.350, 6.460, 346, 347, 11.5, 11.7, 67.2, 66.2, 6.97, 7.10, 242.74, 244.81, -4.760, 388.280, 36.4359, 18.0228, 1025.34, 1025.44, 373.900, 1517.573, NAN, NAN, NAN
2018/04/06, 01:19:20.048, 39.228, -40.257, 10.550, 274.800, 265.300, 9.800, 15.2, 15.3, 1022.8, 1023.0, 0.0, 0.0, 7.350, 6.460, 342, 343, 11.1, 11.0, 67.8, 66.5, 6.16, 6.04, 249.86, 251.55, -4.740, 388.440, 36.4374, 18.0318, 1025.24, 1025.44, 427.500, 1517.601, NAN, NAN, NAN
2018/04/06, 01:20:20.048, 39.228, -40.261, 10.500, 274.400, 264.500, 10.810, 15.2, 15.3, 1022.9, 1023.2, 0.0, 0.0, 7.350, 6.460, 342, 343, 12.1, 11.8, 67.4, 66.2, 6.65, 6.32, 249.63, 251.17, -4.680, 389.730, 36.4357, 18.0392, 1025.34, 1025.64, 463.800, 1517.621, NAN, NAN, NAN
2018/04/06, 01:21:20.048, 39.228, -40.265, 10.710, 274.700, 291.000, 10.530, 15.2, 15.3, 1023.2, 1022.6, 0.0, 0.0, 7.350, 6.460, 344, 346, 11.1, 11.4, 68.0, 66.9, 7.14, 7.26, 234.80, 238.61, -4.710, 390.960, 36.4360, 18.0454, 1025.64, 1025.04, 474.200, 1517.639, NAN, NAN, NAN
2018/04/06, 01:22:20.048, 39.229, -40.268, 10.970, 274.900, 284.400, 10.030, 15.3, 15.4, 1022.2, 1023.3, 0.0, 0.0, 7.350, 6.460, 340, 344, 12.1, 12.1, 68.1, 66.9, 8.03, 7.77, 236.46, 242.30, -4.730, 390.690, 36.4357, 18.0511, 1024.64, 1025.74, 496.800, 1517.655, NAN, NAN, NAN
2018/04/06, 01:23:20.048, 39.229, -40.272, 10.820, 275.000, 277.800, 10.610, 15.3, 15.4, 1022.3, 1023.4, 0.0, 0.0, 7.350, 6.460, 341, 344, 11.5, 11.2, 67.6, 66.7, 6.75, 6.29, 238.53, 242.77, -4.620, 388.650, 36.4360, 18.0558, 1024.74, 1025.84, 486.400, 1517.669, NAN, NAN, NAN
2018/04/06, 01:24:20.048, 39.229, -40.275, 11.060, 274.500, 272.000, 10.710, 15.3, 15.4, 1022.5, 1023.1, 0.0, 0.0, 7.350, 6.460, 349, 351, 11.7, 11.6, 67.7, 66.2, 6.31, 6.16, 256.09, 259.70, -4.690, 388.820, 36.4362, 18.0588, 1024.94, 1025.54, 480.000, 1517.678, NAN, NAN, NAN